{"data":{"norad_id":59910,"epoch":"2026-09-22T21:38:35.088000Z","epoch_age_seconds":67941,"freshness":"FRESH","line1":"1 59910U 24102B   26265.90179500  .00000022  00000+0  10294-3 0  9997","line2":"2 59910  44.9728 186.6936 0011324 343.8979  16.1492 13.99178894118599","mean_motion":13.99178894,"eccentricity":0.0011324,"inclination_deg":44.9728,"raan_deg":186.6936,"arg_perigee_deg":343.8979,"mean_anomaly_deg":16.1492,"bstar":0.00010294,"rev_number":11859,"period_min":102.91750441456,"perigee_km":888.4019200141,"apogee_km":904.87783468592,"semimajor_km":7274.77687735,"source":"CELESTRAK","updated_at":"2026-09-23T09:00:19.771708Z"}}